Location: Newark
(42.8481°N, 0.4872°E)
Time: 11:20:59
(UTC+00:00)

Explorer 7 - Pass Details

Date: 29 October 2020
Orbit: 484 x 678 km, 50.3° (Epoch: 03 December)

Event Time Altitude Azimuth Distance (km) Brightness Sun altitude
Rises 17:14:37 0° 298° (WNW) 2,579 11.1 -4.5°
Reaches altitude 10° 17:16:55 10° 308° (NW) 1,715 9.9 -4.9°
Maximum altitude 17:20:28 33° 14° (NNE) 885 7.7 -5.5°
Drops below altitude 10° 17:24:11 10° 80° (E) 1,797 8.8 -6.2°
Enters shadow 17:24:43 - 83° (E) 1,993 9.0 -6.3°
